Location: 81360 Arifat, France
(43.7204°N, 2.3408°E)
Time: 11:46:38
(UTC+02:00)

N. Korean satellite - Pass Details

Date: 05 October 2021
Orbit: 450 x 495 km, 97.3° (Epoch: 15 October)

Event Time Altitude Azimuth Distance (km) Brightness Sun altitude
Rises 07:05:43 0° 13° (NNE) 2,560 10.4 -9.4°
Reaches altitude 10° 07:07:47 10° 15° (NNE) 1,681 9.5 -9.0°
Maximum altitude 07:11:24 79° 102° (ESE) 506 6.8 -8.3°
Drops below altitude 10° 07:15:02 10° 189° (S) 1,684 9.2 -7.7°
Sets 07:17:07 0° 191° (S) 2,564 10.1 -7.3°
